Regional Weather Roundup
Issued by NWS Northern Indiana

Home | Current Version | Previous Version | Graphics & Text | Print | Product List | Glossary On
Versions: 1 2 3 4 5 6 7 8 9 10 11 12 13 14 15 16 17 18 19 20 21 22 23 24 25 26 27 28 29 30 31 32 33 34 35 36 37 38 39 40 41 42 43 44 45 46 47 48 49 50
000
ASUS43 KIWX 231910
RWRIWX

KIWX WEATHER ROUNDUP
NATIONAL WEATHER SERVICE NORTHERN INDIANA
300 PM EDT SAT JUL 23 2016

NOTE: "FAIR" INDICATES FEW OR NO CLOUDS BELOW 12,000 FEET WITH NO
SIGNIFICANT WEATHER AND/OR OBSTRUCTIONS TO VISIBILITY.

* THESE STATIONS ARE NOT UNDER NWS QUALITY CONTROL. THEY ALSO MAY NOT
  REPORT WEATHER SUCH AS PRECIPITATION OR FOG.

INZ001>027-232000-
NORTHERN INDIANA

CITY           SKY/WX    TMP DP  RH WIND       PRES   REMARKS
GARY*          CLOUDY    88  84  89 NE6       29.99  HX 112
VALPARAISO     CLOUDY    91  76  61 SW13      30.00S HX 103
MICHIGAN CITY* PTSUNNY   88  75  66 NW3       29.99F HX  97
LAPORTE*       CLOUDY    91  76  60 SW5       30.00S HX 103
KNOX*          MOSUNNY   88  68  51 SW5       29.99S
SOUTH BEND     CLOUDY    90  74  59 NW3       29.99S HX  99
ELKHART*       MOSUNNY   91  77  62 W3        30.00S HX 105
MONTICELLO*    SUNNY     89  71  55 W5        30.00S
LOGANSPORT*    PTSUNNY   88  73  62 SW7       30.01F HX  96
ROCHESTER*     PTSUNNY   91  79  66 SW8       30.01S HX 107
WARSAW*        MOSUNNY   88  72  58 CALM      30.00S
ANGOLA*          N/A     91  86  84 CALM      30.01S HX 122
FORT WAYNE     PTSUNNY   91  69  48 S8        30.00F HX  96
HUNTINGTON*    MOSUNNY  N/A N/A N/A S5        30.00S
PERU/GRISSOM   PTSUNNY   89  74  59 S7        30.00S HX  98
MARION*        PTSUNNY   87  71  59 CALM      30.02S HAZE

$$
INZ028>050-232000-
CENTRAL INDIANA

CITY           SKY/WX    TMP DP  RH WIND       PRES   REMARKS
LAFAYETTE      MOSUNNY   89  76  65 W6        29.99F HX 100
KOKOMO*        PTSUNNY   90  72  55 CALM      30.00S HX  96
MUNCIE*        MOSUNNY   89  72  56 NW7       30.01F HX  96
INDIANAPOLIS   PTSUNNY   88  73  61 SW7       30.02S HX  95

$$
MIZ043>046-050>051-056>058-064>065-071>073-077>080-232000-
SOUTHWEST LOWER MICHIGAN

CITY           SKY/WX    TMP DP  RH WIND       PRES   REMARKS
BATTLE CREEK   MOSUNNY   86  69  56 SW7       30.02R
BENTON HARBOR  CLOUDY    89  71  55 VRB3      29.99S HX  95
COLDWATER*     MOSUNNY   89  62  40 CALM      30.01S
HOLLAND        MOSUNNY   89  71  55 W9        30.00S HX  95
GRAND RAPIDS   PTSUNNY   90  63  40 E7        29.99S
KALAMAZOO      SUNNY     91  64  40 SW6       30.01R
STURGIS*       SUNNY     91  66  44 NW6       30.00R
THREE RIVERS*  FAIR      91  57  31 S7        30.01S

$$
OHZ001>008-015>018-024>025-232000-
NORTHWEST OHIO

CITY           SKY/WX    TMP DP  RH WIND       PRES   REMARKS
WAUSEON*       FAIR      91  68  46 CALM      29.99F HX  95
DEFIANCE       SUNNY     90  66  45 VRB3      29.98F
FINDLAY        MOSUNNY   90  68  48 NW5       29.98F
TOLEDO EXPRESS SUNNY     92  67  43 NW5       29.97F HX  95
TOLEDO METCALF MOSUNNY   92  68  45 CALM      29.97F HX  96
LIMA           MOSUNNY   89  72  56 MISG      30.00F HX  96

$$
AND FOR LAKE MICHIGAN COASTAL AND OPEN LAKE BUOY OBSERVATIONS

STATION/POSITION TEMP    WIND        PRES    VSBY  WAVE
                 AIR SEA DIR/SP/G                  HT/PER
                 (F)     (DEG/KT/KT) (MB)    (MI)  (FT/S)
CALUMET HARBOR    81      60/  6/  8 1014.9S
MICHIGAN CITY     78      10/  4/  4   N/A
BURNS HARBOR      82      60/  6/  7 1015.9S
SAINT JOSEPH      86     230/  2/  2 1015.9F
SOUTH LAKE BUOY   78 77  120/  2/  2 1014.8S         0
4 MI NW BRIDGMAN  80 79   10/  2/  4 1015.0F         1
MICHIGAN CITY     80 78   80/  2/  4   N/A           1

$$
&&




USA.gov is the U.S. government's official web portal to all federal, state and local government web resources and services.